Regional Weather Roundup
Issued by NWS Goodland, KS

Home | Current Version | Previous Version | Graphics & Text | Print | Product List | Glossary On
Versions: 1 2 3 4 5 6 7 8 9 10 11 12 13 14 15 16 17 18 19 20 21 22 23 24 25 26 27 28 29 30 31 32 33 34 35 36 37 38 39 40 41 42 43 44 45 46 47 48 49 50
000
ASUS43 KGLD 192308
RWRGLD

GOODLAND FORECAST AREA HOURLY WEATHER ROUNDUP
NATIONAL WEATHER SERVICE GOODLAND KS
500 PM MDT SAT APR 19 2014

...OFFICIAL OBSERVATIONS...

CITY           SKY/WX    TMP DP  RH WIND       PRES   REMARKS
GOODLAND KS    SUNNY     69  47  45 NE8G18    29.99R
HILL CITY KS   PTSUNNY   81  48  31 S23G32    29.87S
IMPERIAL NEB   PTSUNNY   70  40  33 NE14      29.99S
MCCOOK NEB     PTSUNNY   70  49  47 NE8       29.96R
AKRON CO       PTSUNNY   63  37  38 E14       30.02S
BURLINGTON CO  PTSUNNY   70  41  34 NE15      30.01S
LIMON CO       MOSUNNY   65  33  30 E20       30.02F
$$

...UNOFFICIAL OBSERVATIONS...

CITY           SKY/WX    TMP DP  RH WIND       PRES   REMARKS
COLBY KS       SUNNY     72  52  49 N9G16     29.96R
LENORA KS        N/A     78  32  18 N9          N/A
LEOTI KS         N/A     76  32  20 NE9         N/A
NORTON KS      SUNNY     72  48  43 N9        29.89S
SHARON SPRINGS   N/A     74  49  41 NE9G16      N/A
ST FRANCIS KS  MOSUNNY   70  41  35 NE12G18   29.98S
WAKEENEY KS      N/A     79  42  26 MISG        N/A
WRAY CO        PTSUNNY   70  37  30 NE15G28   29.99F
$$



USA.gov is the U.S. government's official web portal to all federal, state and local government web resources and services.